Time,TemperatureF,DewpointF,PressureIn,WindDirection,WindDirectionDegrees,WindSpeedMPH,WindSpeedGustMPH,Humidity,HourlyPrecipIn,Conditions,Clouds,dailyrainin,SoftwareType,DateUTC
2013-07-05 00:00:00,73.2,72.3,30.22,SSE,147,0.0,0.0,97,0.00,,,0.00,Wunderground v.1.15,2013-07-05 04:00:00,
2013-07-05 00:05:00,73.2,72.3,30.23,SSE,147,0.0,0.0,97,0.00,,,0.00,Wunderground v.1.15,2013-07-05 04:05:00,
2013-07-05 00:10:00,73.1,72.2,30.23,SSE,147,0.0,0.0,97,0.00,,,0.00,Wunderground v.1.15,2013-07-05 04:10:00,
2013-07-05 00:15:00,73.0,72.1,30.23,SSE,147,0.0,0.0,97,0.00,,,0.00,Wunderground v.1.15,2013-07-05 04:15:00,
2013-07-05 00:25:00,72.9,72.0,30.23,SSE,147,0.0,0.0,97,0.00,,,0.00,Wunderground v.1.15,2013-07-05 04:25:00,
2013-07-05 00:35:00,72.8,72.2,30.23,SSE,147,0.0,0.0,98,0.00,,,0.00,Wunderground v.1.15,2013-07-05 04:35:00,
2013-07-05 00:40:00,72.8,72.2,30.23,SSE,147,0.0,0.0,98,0.00,,,0.00,Wunderground v.1.15,2013-07-05 04:40:00,
2013-07-05 00:50:00,72.6,72.0,30.23,SSE,147,0.0,0.0,98,0.00,,,0.00,Wunderground v.1.15,2013-07-05 04:50:00,
2013-07-05 00:55:00,72.6,72.0,30.23,SSE,147,0.0,0.0,98,0.00,,,0.00,Wunderground v.1.15,2013-07-05 04:55:00,
2013-07-05 01:00:00,72.5,71.9,30.23,SSE,147,0.0,0.0,98,0.00,,,0.00,Wunderground v.1.15,2013-07-05 05:00:00,
2013-07-05 01:10:00,72.4,71.8,30.23,SSE,147,0.0,0.0,98,0.00,,,0.00,Wunderground v.1.15,2013-07-05 05:10:00,
2013-07-05 01:15:00,72.3,71.7,30.23,SSE,147,0.0,0.0,98,0.00,,,0.00,Wunderground v.1.15,2013-07-05 05:15:00,
2013-07-05 01:20:00,72.2,71.6,30.22,SSE,147,0.0,0.0,98,0.00,,,0.00,Wunderground v.1.15,2013-07-05 05:20:00,
2013-07-05 01:25:00,72.1,71.5,30.22,SSE,147,0.0,0.0,98,0.00,,,0.00,Wunderground v.1.15,2013-07-05 05:25:00,
2013-07-05 01:35:00,72.0,71.7,30.22,SSE,147,0.0,0.0,99,0.00,,,0.00,Wunderground v.1.15,2013-07-05 05:35:00,
2013-07-05 01:45:00,71.9,71.6,30.22,SSE,147,0.0,0.0,99,0.00,,,0.00,Wunderground v.1.15,2013-07-05 05:45:00,
2013-07-05 01:55:00,71.8,71.5,30.22,SSE,147,0.0,0.0,99,0.00,,,0.00,Wunderground v.1.15,2013-07-05 05:55:00,
2013-07-05 02:00:00,71.7,71.4,30.22,SSE,147,0.0,0.0,99,0.00,,,0.00,Wunderground v.1.15,2013-07-05 06:00:00,
2013-07-05 02:10:00,71.7,71.4,30.22,SSE,147,0.0,0.0,99,0.00,,,0.00,Wunderground v.1.15,2013-07-05 06:10:00,
2013-07-05 02:20:00,71.6,71.3,30.22,SSE,147,0.0,0.0,99,0.00,,,0.00,Wunderground v.1.15,2013-07-05 06:20:00,
2013-07-05 02:30:00,71.5,71.2,30.22,SSE,147,0.0,0.0,99,0.00,,,0.00,Wunderground v.1.15,2013-07-05 06:30:00,
2013-07-05 02:35:00,71.5,71.2,30.21,SSE,147,0.0,0.0,99,0.00,,,0.00,Wunderground v.1.15,2013-07-05 06:35:00,
2013-07-05 02:45:00,71.5,71.5,30.21,SSE,147,0.0,0.0,100,0.00,,,0.00,Wunderground v.1.15,2013-07-05 06:45:00,
2013-07-05 02:55:00,71.5,71.5,30.21,SSE,147,0.0,0.0,100,0.00,,,0.00,Wunderground v.1.15,2013-07-05 06:55:00,
2013-07-05 03:05:00,71.4,71.4,30.21,SSE,147,0.0,0.0,100,0.00,,,0.00,Wunderground v.1.15,2013-07-05 07:05:00,
2013-07-05 03:10:00,71.4,71.4,30.21,SSE,147,0.0,0.0,100,0.00,,,0.00,Wunderground v.1.15,2013-07-05 07:10:00,
2013-07-05 03:20:00,71.4,71.4,30.20,SSE,147,0.0,0.0,100,0.00,,,0.00,Wunderground v.1.15,2013-07-05 07:20:00,
2013-07-05 03:30:00,71.3,71.3,30.20,SSE,147,0.0,0.0,100,0.00,,,0.00,Wunderground v.1.15,2013-07-05 07:30:00,
2013-07-05 03:40:00,71.3,71.3,30.20,SSE,147,0.0,0.0,100,0.00,,,0.00,Wunderground v.1.15,2013-07-05 07:40:00,
2013-07-05 03:45:00,71.3,71.3,30.20,SSE,147,0.0,0.0,100,0.00,,,0.00,Wunderground v.1.15,2013-07-05 07:45:00,
2013-07-05 03:55:00,71.3,71.3,30.20,SSE,147,0.0,0.0,100,0.00,,,0.00,Wunderground v.1.15,2013-07-05 07:55:00,
2013-07-05 04:05:00,71.3,71.3,30.20,SSE,147,0.0,0.0,100,0.00,,,0.00,Wunderground v.1.15,2013-07-05 08:05:00,
2013-07-05 04:15:00,71.3,71.3,30.20,SSE,147,0.0,0.0,100,0.00,,,0.00,Wunderground v.1.15,2013-07-05 08:15:00,
2013-07-05 04:20:00,71.4,71.4,30.20,SSE,147,0.0,0.0,100,0.00,,,0.00,Wunderground v.1.15,2013-07-05 08:20:00,
2013-07-05 04:30:00,71.4,71.4,30.20,SSE,147,0.0,0.0,100,0.00,,,0.00,Wunderground v.1.15,2013-07-05 08:30:00,
2013-07-05 04:40:00,71.5,71.5,30.20,SSE,147,0.0,0.0,100,0.00,,,0.00,Wunderground v.1.15,2013-07-05 08:40:00,
2013-07-05 04:50:00,71.7,71.7,30.20,SSE,147,0.0,0.0,100,0.00,,,0.00,Wunderground v.1.15,2013-07-05 08:50:00,
2013-07-05 05:00:00,72.0,72.0,30.21,SSE,147,0.0,0.0,100,0.00,,,0.00,Wunderground v.1.15,2013-07-05 09:00:00,
2013-07-05 05:05:00,72.1,72.1,30.21,SSE,147,0.0,0.0,100,0.00,,,0.00,Wunderground v.1.15,2013-07-05 09:05:00,
2013-07-05 05:15:00,72.3,72.3,30.21,SSE,147,0.0,0.0,100,0.00,,,0.00,Wunderground v.1.15,2013-07-05 09:15:00,
2013-07-05 05:25:00,72.5,72.5,30.21,West,273,0.0,0.0,100,0.00,,,0.00,Wunderground v.1.15,2013-07-05 09:25:00,
2013-07-05 05:30:00,72.5,72.5,30.21,West,273,0.0,0.0,100,0.00,,,0.00,Wunderground v.1.15,2013-07-05 09:30:00,
2013-07-05 05:40:00,72.6,72.6,30.22,West,273,0.0,0.0,100,0.00,,,0.00,Wunderground v.1.15,2013-07-05 09:40:00,
2013-07-05 05:50:00,72.7,72.7,30.22,West,273,0.0,0.0,100,0.00,,,0.00,Wunderground v.1.15,2013-07-05 09:50:00,
2013-07-05 06:00:00,72.8,72.8,30.22,West,273,0.0,0.0,100,0.00,,,0.00,Wunderground v.1.15,2013-07-05 10:00:00,
2013-07-05 06:05:00,72.8,72.8,30.22,West,273,0.0,0.0,100,0.00,,,0.00,Wunderground v.1.15,2013-07-05 10:05:00,
2013-07-05 06:15:00,72.8,72.8,30.22,West,273,0.0,0.0,100,0.00,,,0.00,Wunderground v.1.15,2013-07-05 10:15:00,
2013-07-05 06:25:00,72.8,72.8,30.22,West,273,0.0,0.0,100,0.00,,,0.00,Wunderground v.1.15,2013-07-05 10:25:00,
2013-07-05 06:35:00,72.9,72.9,30.22,West,273,0.0,0.0,100,0.00,,,0.00,Wunderground v.1.15,2013-07-05 10:35:00,
2013-07-05 06:45:00,72.9,72.9,30.22,West,273,0.0,0.0,100,0.00,,,0.00,Wunderground v.1.15,2013-07-05 10:45:00,
2013-07-05 06:50:00,73.0,73.0,30.22,West,273,0.0,0.0,100,0.00,,,0.00,Wunderground v.1.15,2013-07-05 10:50:00,
2013-07-05 07:00:00,73.0,73.0,30.22,West,273,0.0,0.0,100,0.00,,,0.00,Wunderground v.1.15,2013-07-05 11:00:00,
2013-07-05 07:10:00,73.1,73.1,30.23,West,273,0.0,0.0,100,0.00,,,0.00,Wunderground v.1.15,2013-07-05 11:10:00,
2013-07-05 07:15:00,73.2,73.2,30.23,West,273,0.0,0.0,100,0.00,,,0.00,Wunderground v.1.15,2013-07-05 11:15:00,
2013-07-05 07:25:00,73.3,73.3,30.23,West,273,0.0,0.0,100,0.00,,,0.00,Wunderground v.1.15,2013-07-05 11:25:00,
2013-07-05 07:30:00,73.3,73.3,30.23,West,273,0.0,0.0,100,0.00,,,0.00,Wunderground v.1.15,2013-07-05 11:30:00,
2013-07-05 07:45:00,73.6,73.6,30.24,WNW,296,0.0,0.0,100,0.00,,,0.00,Wunderground v.1.15,2013-07-05 11:45:00,
2013-07-05 07:50:00,73.7,73.7,30.24,WNW,296,0.0,0.0,100,0.00,,,0.00,Wunderground v.1.15,2013-07-05 11:50:00,
2013-07-05 08:00:00,73.8,73.8,30.24,WNW,296,0.0,0.0,100,0.00,,,0.00,Wunderground v.1.15,2013-07-05 12:00:00,
2013-07-05 08:05:00,73.9,73.9,30.24,WNW,303,0.0,2.0,100,0.00,,,0.00,Wunderground v.1.15,2013-07-05 12:05:00,
2013-07-05 08:15:00,74.0,74.0,30.24,SW,234,0.0,0.0,100,0.00,,,0.00,Wunderground v.1.15,2013-07-05 12:15:00,
2013-07-05 08:30:00,74.4,74.4,30.24,SW,234,0.0,0.0,100,0.00,,,0.00,Wunderground v.1.15,2013-07-05 12:30:00,
2013-07-05 08:35:00,74.5,74.5,30.25,SW,234,0.0,0.0,100,0.00,,,0.00,Wunderground v.1.15,2013-07-05 12:35:00,
2013-07-05 08:45:00,74.9,74.9,30.25,SW,234,0.0,0.0,100,0.00,,,0.00,Wunderground v.1.15,2013-07-05 12:45:00,
2013-07-05 08:55:00,75.3,75.3,30.25,ESE,112,0.0,1.0,100,0.00,,,0.00,Wunderground v.1.15,2013-07-05 12:55:00,
2013-07-05 09:05:00,75.9,75.6,30.25,SSE,148,0.0,0.0,99,0.00,,,0.00,Wunderground v.1.15,2013-07-05 13:05:00,
2013-07-05 09:15:00,76.6,76.0,30.25,SSE,148,0.0,0.0,98,0.00,,,0.00,Wunderground v.1.15,2013-07-05 13:15:00,
2013-07-05 09:25:00,76.8,75.6,30.24,SE,138,0.0,2.0,96,0.00,,,0.00,Wunderground v.1.15,2013-07-05 13:25:00,
2013-07-05 09:35:00,77.2,75.7,30.24,SE,137,0.0,0.0,95,0.00,,,0.00,Wunderground v.1.15,2013-07-05 13:35:00,
2013-07-05 09:40:00,77.5,76.0,30.24,SE,138,0.0,0.0,95,0.00,,,0.00,Wunderground v.1.15,2013-07-05 13:40:00,
2013-07-05 09:50:00,78.0,76.1,30.25,NE,53,0.0,0.0,94,0.00,,,0.00,Wunderground v.1.15,2013-07-05 13:50:00,
2013-07-05 10:00:00,78.3,75.8,30.25,NE,55,1.0,1.0,92,0.00,,,0.00,Wunderground v.1.15,2013-07-05 14:00:00,
2013-07-05 10:10:00,78.7,75.5,30.25,NE,42,1.0,1.0,90,0.00,,,0.00,Wunderground v.1.15,2013-07-05 14:10:00,
2013-07-05 10:20:00,79.4,75.9,30.25,NNE,30,0.0,1.0,89,0.00,,,0.00,Wunderground v.1.15,2013-07-05 14:20:00,
2013-07-05 10:25:00,79.8,75.9,30.25,NNE,29,0.0,1.0,88,0.00,,,0.00,Wunderground v.1.15,2013-07-05 14:25:00,
2013-07-05 10:35:00,80.6,75.7,30.25,NNE,28,1.0,1.0,85,0.00,,,0.00,Wunderground v.1.15,2013-07-05 14:35:00,
2013-07-05 10:40:00,81.0,75.7,30.25,NW,317,1.0,1.0,84,0.00,,,0.00,Wunderground v.1.15,2013-07-05 14:40:00,
2013-07-05 10:45:00,81.3,76.7,30.25,NW,317,1.0,2.0,86,0.00,,,0.00,Wunderground v.1.15,2013-07-05 14:45:00,
2013-07-05 10:55:00,81.4,76.8,30.25,SSE,149,1.0,2.0,86,0.00,,,0.00,Wunderground v.1.15,2013-07-05 14:55:00,
2013-07-05 11:05:00,81.2,76.3,30.25,SE,136,0.0,1.0,85,0.00,,,0.00,Wunderground v.1.15,2013-07-05 15:05:00,
2013-07-05 11:10:00,81.8,77.2,30.24,SE,132,0.0,0.0,86,0.00,,,0.00,Wunderground v.1.15,2013-07-05 15:10:00,
2013-07-05 11:20:00,81.8,75.8,30.25,West,267,1.0,4.0,82,0.00,,,0.00,Wunderground v.1.15,2013-07-05 15:20:00,
2013-07-05 11:25:00,81.9,76.2,30.25,NW,326,1.0,4.0,83,0.00,,,0.00,Wunderground v.1.15,2013-07-05 15:25:00,
2013-07-05 11:30:00,82.4,76.0,30.24,NE,52,1.0,1.0,81,0.00,,,0.00,Wunderground v.1.15,2013-07-05 15:30:00,
2013-07-05 11:40:00,82.9,76.8,30.24,NE,47,1.0,1.0,82,0.00,,,0.00,Wunderground v.1.15,2013-07-05 15:40:00,
2013-07-05 11:50:00,83.6,77.9,30.24,East,93,1.0,2.0,83,0.00,,,0.00,Wunderground v.1.15,2013-07-05 15:50:00,
2013-07-05 11:55:00,82.8,75.6,30.24,East,93,1.0,2.0,79,0.00,,,0.00,Wunderground v.1.15,2013-07-05 15:55:00,
2013-07-05 12:05:00,82.9,76.8,30.24,East,81,0.0,1.0,82,0.00,,,0.00,Wunderground v.1.15,2013-07-05 16:05:00,
2013-07-05 12:15:00,83.8,77.7,30.23,ESE,123,0.0,0.0,82,0.00,,,0.00,Wunderground v.1.15,2013-07-05 16:15:00,
2013-07-05 12:20:00,84.3,78.2,30.23,ENE,70,0.0,1.0,82,0.00,,,0.00,Wunderground v.1.15,2013-07-05 16:20:00,
2013-07-05 12:30:00,84.2,76.2,30.24,NNW,339,1.0,1.0,77,0.00,,,0.00,Wunderground v.1.15,2013-07-05 16:30:00,
2013-07-05 12:40:00,83.7,76.9,30.23,North,5,0.0,0.0,80,0.00,,,0.00,Wunderground v.1.15,2013-07-05 16:40:00,
2013-07-05 12:50:00,83.5,77.1,30.23,NE,36,1.0,1.0,81,0.00,,,0.00,Wunderground v.1.15,2013-07-05 16:50:00,
2013-07-05 12:55:00,83.3,76.1,30.23,NE,41,1.0,1.0,79,0.00,,,0.00,Wunderground v.1.15,2013-07-05 16:55:00,
2013-07-05 13:05:00,84.1,77.3,30.22,ENE,61,0.0,1.0,80,0.00,,,0.00,Wunderground v.1.15,2013-07-05 17:05:00,
2013-07-05 13:15:00,84.3,76.7,30.22,ESE,107,1.0,1.0,78,0.00,,,0.00,Wunderground v.1.15,2013-07-05 17:15:00,
2013-07-05 13:25:00,84.9,77.7,30.22,ESE,107,0.0,2.0,79,0.00,,,0.00,Wunderground v.1.15,2013-07-05 17:25:00,
2013-07-05 13:30:00,85.0,75.0,30.21,ESE,107,1.0,1.0,72,0.00,,,0.00,Wunderground v.1.15,2013-07-05 17:30:00,
2013-07-05 13:40:00,85.3,76.1,30.21,SW,232,1.0,2.0,74,0.00,,,0.00,Wunderground v.1.15,2013-07-05 17:40:00,
2013-07-05 13:50:00,85.5,77.5,30.21,SSE,160,1.0,1.0,77,0.00,,,0.00,Wunderground v.1.15,2013-07-05 17:50:00,
2013-07-05 14:00:00,86.1,77.6,30.20,NW,318,0.0,0.0,76,0.00,,,0.00,Wunderground v.1.15,2013-07-05 18:00:00,
2013-07-05 14:05:00,86.2,78.1,30.20,NW,318,0.0,1.0,77,0.00,,,0.00,Wunderground v.1.15,2013-07-05 18:05:00,
2013-07-05 14:15:00,85.8,78.5,30.20,NW,318,1.0,1.0,79,0.00,,,0.00,Wunderground v.1.15,2013-07-05 18:15:00,
2013-07-05 14:25:00,85.8,77.0,30.20,NW,318,0.0,0.0,75,0.00,,,0.00,Wunderground v.1.15,2013-07-05 18:25:00,
2013-07-05 14:35:00,86.5,76.4,30.19,NW,318,0.0,1.0,72,0.00,,,0.00,Wunderground v.1.15,2013-07-05 18:35:00,
2013-07-05 14:40:00,86.2,78.1,30.19,NW,318,0.0,1.0,77,0.00,,,0.00,Wunderground v.1.15,2013-07-05 18:40:00,
2013-07-05 14:50:00,85.8,79.3,30.19,NW,318,0.0,0.0,81,0.00,,,0.00,Wunderground v.1.15,2013-07-05 18:50:00,
2013-07-05 15:00:00,87.6,78.3,30.18,NW,318,1.0,1.0,74,0.00,,,0.00,Wunderground v.1.15,2013-07-05 19:00:00,
2013-07-05 15:05:00,87.8,78.1,30.18,NW,318,0.0,1.0,73,0.00,,,0.00,Wunderground v.1.15,2013-07-05 19:05:00,
2013-07-05 15:15:00,87.2,76.6,30.18,NE,54,1.0,1.0,71,0.00,,,0.00,Wunderground v.1.15,2013-07-05 19:15:00,
2013-07-05 15:25:00,86.6,77.3,30.18,NE,49,1.0,1.0,74,0.00,,,0.00,Wunderground v.1.15,2013-07-05 19:25:00,
2013-07-05 15:35:00,86.6,77.3,30.17,NW,319,0.0,1.0,74,0.00,,,0.00,Wunderground v.1.15,2013-07-05 19:35:00,
2013-07-05 15:40:00,86.6,79.7,30.17,NW,319,0.0,0.0,80,0.00,,,0.00,Wunderground v.1.15,2013-07-05 19:40:00,
2013-07-05 15:50:00,86.0,76.3,30.17,NW,319,0.0,0.0,73,0.00,,,0.00,Wunderground v.1.15,2013-07-05 19:50:00,
2013-07-05 16:00:00,85.4,77.8,30.17,NW,319,0.0,0.0,78,0.00,,,0.00,Wunderground v.1.15,2013-07-05 20:00:00,
2013-07-05 16:10:00,85.3,78.0,30.16,NW,319,0.0,1.0,79,0.00,,,0.00,Wunderground v.1.15,2013-07-05 20:10:00,
2013-07-05 16:15:00,85.0,76.6,30.16,NW,319,1.0,1.0,76,0.00,,,0.00,Wunderground v.1.15,2013-07-05 20:15:00,
2013-07-05 16:25:00,85.5,77.5,30.16,NW,319,0.0,1.0,77,0.00,,,0.00,Wunderground v.1.15,2013-07-05 20:25:00,
2013-07-05 16:35:00,86.1,78.8,30.15,NW,319,0.0,1.0,79,0.00,,,0.00,Wunderground v.1.15,2013-07-05 20:35:00,
2013-07-05 16:45:00,86.1,77.2,30.15,NW,319,0.0,0.0,75,0.00,,,0.00,Wunderground v.1.15,2013-07-05 20:45:00,
2013-07-05 16:55:00,85.2,77.2,30.15,NW,319,0.0,0.0,77,0.00,,,0.00,Wunderground v.1.15,2013-07-05 20:55:00,
2013-07-05 17:00:00,85.0,78.5,30.14,NW,319,0.0,0.0,81,0.00,,,0.00,Wunderground v.1.15,2013-07-05 21:00:00,
2013-07-05 17:10:00,85.7,78.4,30.14,NW,319,0.0,0.0,79,0.00,,,0.00,Wunderground v.1.15,2013-07-05 21:10:00,
2013-07-05 17:20:00,85.5,78.2,30.14,NW,319,0.0,0.0,79,0.00,,,0.00,Wunderground v.1.15,2013-07-05 21:20:00,
2013-07-05 17:30:00,85.8,77.8,30.14,West,279,0.0,0.0,77,0.00,,,0.00,Wunderground v.1.15,2013-07-05 21:30:00,
2013-07-05 17:35:00,85.6,77.6,30.14,West,279,1.0,1.0,77,0.00,,,0.00,Wunderground v.1.15,2013-07-05 21:35:00,
2013-07-05 17:45:00,85.2,77.6,30.13,West,279,0.0,1.0,78,0.00,,,0.00,Wunderground v.1.15,2013-07-05 21:45:00,
2013-07-05 17:55:00,84.6,78.1,30.13,West,279,0.0,0.0,81,0.00,,,0.00,Wunderground v.1.15,2013-07-05 21:55:00,
2013-07-05 18:05:00,83.9,77.4,30.13,West,279,0.0,0.0,81,0.00,,,0.00,Wunderground v.1.15,2013-07-05 22:05:00,
2013-07-05 18:10:00,83.7,77.6,30.13,West,279,0.0,0.0,82,0.00,,,0.00,Wunderground v.1.15,2013-07-05 22:10:00,
2013-07-05 18:20:00,83.4,77.0,30.13,West,279,0.0,0.0,81,0.00,,,0.00,Wunderground v.1.15,2013-07-05 22:20:00,
2013-07-05 18:30:00,83.1,77.4,30.13,West,279,0.0,0.0,83,0.00,,,0.00,Wunderground v.1.15,2013-07-05 22:30:00,
2013-07-05 18:35:00,83.1,77.0,30.13,West,279,0.0,1.0,82,0.00,,,0.00,Wunderground v.1.15,2013-07-05 22:35:00,
2013-07-05 18:45:00,83.0,77.3,30.14,West,279,0.0,0.0,83,0.00,,,0.00,Wunderground v.1.15,2013-07-05 22:45:00,
2013-07-05 18:55:00,83.2,77.9,30.14,West,279,0.0,0.0,84,0.00,,,0.00,Wunderground v.1.15,2013-07-05 22:55:00,
2013-07-05 19:05:00,83.4,77.7,30.14,West,279,0.0,0.0,83,0.00,,,0.00,Wunderground v.1.15,2013-07-05 23:05:00,
2013-07-05 19:15:00,83.1,78.1,30.14,West,279,0.0,0.0,85,0.00,,,0.00,Wunderground v.1.15,2013-07-05 23:15:00,
2013-07-05 19:25:00,82.8,77.8,30.14,West,279,0.0,0.0,85,0.00,,,0.00,Wunderground v.1.15,2013-07-05 23:25:00,
2013-07-05 19:35:00,82.0,77.4,30.15,North,11,0.0,1.0,86,0.00,,,0.00,Wunderground v.1.15,2013-07-05 23:35:00,
2013-07-05 19:40:00,81.7,77.1,30.15,North,11,0.0,0.0,86,0.00,,,0.00,Wunderground v.1.15,2013-07-05 23:40:00,
2013-07-05 19:50:00,81.0,76.8,30.15,North,11,0.0,0.0,87,0.00,,,0.00,Wunderground v.1.15,2013-07-05 23:50:00,
2013-07-05 20:00:00,80.6,76.4,30.16,North,11,0.0,0.0,87,0.00,,,0.00,Wunderground v.1.15,2013-07-06 00:00:00,
2013-07-05 20:05:00,80.3,76.4,30.16,North,11,0.0,0.0,88,0.00,,,0.00,Wunderground v.1.15,2013-07-06 00:05:00,
2013-07-05 20:15:00,79.9,76.0,30.16,NNE,13,0.0,0.0,88,0.00,,,0.00,Wunderground v.1.15,2013-07-06 00:15:00,
2013-07-05 20:25:00,79.4,75.9,30.16,NNE,13,0.0,0.0,89,0.00,,,0.00,Wunderground v.1.15,2013-07-06 00:25:00,
2013-07-05 20:35:00,79.0,75.8,30.16,NNE,13,0.0,0.0,90,0.00,,,0.00,Wunderground v.1.15,2013-07-06 00:35:00,
2013-07-05 20:45:00,78.5,75.7,30.16,NNE,13,0.0,0.0,91,0.00,,,0.00,Wunderground v.1.15,2013-07-06 00:45:00,
2013-07-05 20:50:00,78.4,75.9,30.16,NNE,13,0.0,0.0,92,0.00,,,0.00,Wunderground v.1.15,2013-07-06 00:50:00,
2013-07-05 21:00:00,78.0,75.5,30.17,NNE,13,0.0,1.0,92,0.00,,,0.00,Wunderground v.1.15,2013-07-06 01:00:00,
2013-07-05 21:10:00,77.7,75.2,30.17,NNE,13,0.0,0.0,92,0.00,,,0.00,Wunderground v.1.15,2013-07-06 01:10:00,
2013-07-05 21:15:00,77.6,75.4,30.17,NNE,13,0.0,0.0,93,0.00,,,0.00,Wunderground v.1.15,2013-07-06 01:15:00,
2013-07-05 21:25:00,77.4,75.2,30.17,NNE,13,0.0,0.0,93,0.00,,,0.00,Wunderground v.1.15,2013-07-06 01:25:00,
2013-07-05 21:35:00,77.2,75.0,30.17,NNE,13,0.0,0.0,93,0.00,,,0.00,Wunderground v.1.15,2013-07-06 01:35:00,
2013-07-05 21:45:00,77.0,75.1,30.18,NNE,13,0.0,0.0,94,0.00,,,0.00,Wunderground v.1.15,2013-07-06 01:45:00,
2013-07-05 21:50:00,76.9,75.0,30.19,NNE,13,0.0,0.0,94,0.00,,,0.00,Wunderground v.1.15,2013-07-06 01:50:00,
2013-07-05 22:00:00,76.5,75.0,30.19,NNE,13,0.0,0.0,95,0.00,,,0.00,Wunderground v.1.15,2013-07-06 02:00:00,
2013-07-05 22:10:00,76.2,75.0,30.19,NNE,13,0.0,0.0,96,0.00,,,0.00,Wunderground v.1.15,2013-07-06 02:10:00,
2013-07-05 22:15:00,76.1,74.9,30.19,NNE,13,0.0,0.0,96,0.00,,,0.00,Wunderground v.1.15,2013-07-06 02:15:00,
2013-07-05 22:20:00,76.0,74.8,30.19,NNE,13,0.0,0.0,96,0.00,,,0.00,Wunderground v.1.15,2013-07-06 02:20:00,
2013-07-05 22:25:00,76.0,75.1,30.20,NNE,13,0.0,0.0,97,0.00,,,0.00,Wunderground v.1.15,2013-07-06 02:25:00,
2013-07-05 22:35:00,75.9,75.0,30.20,NNE,13,0.0,0.0,97,0.00,,,0.00,Wunderground v.1.15,2013-07-06 02:35:00,
2013-07-05 22:45:00,75.8,74.9,30.20,NNE,13,0.0,0.0,97,0.00,,,0.00,Wunderground v.1.15,2013-07-06 02:45:00,
2013-07-05 22:55:00,75.8,74.9,30.20,NNE,13,0.0,0.0,97,0.00,,,0.00,Wunderground v.1.15,2013-07-06 02:55:00,
2013-07-05 23:00:00,75.8,74.9,30.20,NNE,13,0.0,0.0,97,0.00,,,0.00,Wunderground v.1.15,2013-07-06 03:00:00,
2013-07-05 23:10:00,75.8,74.9,30.20,NNE,13,0.0,0.0,97,0.00,,,0.00,Wunderground v.1.15,2013-07-06 03:10:00,
2013-07-05 23:20:00,75.8,74.9,30.20,NNE,13,0.0,0.0,97,0.00,,,0.00,Wunderground v.1.15,2013-07-06 03:20:00,
2013-07-05 23:25:00,75.8,74.9,30.20,NNE,13,0.0,0.0,97,0.00,,,0.00,Wunderground v.1.15,2013-07-06 03:25:00,
2013-07-05 23:35:00,75.9,75.0,30.20,NNE,13,0.0,0.0,97,0.00,,,0.00,Wunderground v.1.15,2013-07-06 03:35:00,
2013-07-05 23:45:00,75.9,75.0,30.20,NNE,13,0.0,0.0,97,0.00,,,0.00,Wunderground v.1.15,2013-07-06 03:45:00,
2013-07-05 23:55:00,75.9,74.7,30.20,NNE,13,0.0,0.0,96,0.00,,,0.00,Wunderground v.1.15,2013-07-06 03:55:00,